Regional Weather Roundup
Issued by NWS

Home | Current Version | Previous Version | Graphics & Text | Print | Product List | Glossary On
Versions: 1 2 3 4 5 6 7 8 9 10 11 12 13 14 15 16 17 18 19 20 21 22 23 24 25 26 27 28 29 30 31 32 33 34 35 36 37 38 39 40 41 42 43 44 45 46 47 48 49 50
000
ASUS43 KFSD 032210
RWRSD

WEATHER ROUNDUP FOR SOUTH DAKOTA
NATIONAL WEATHER SERVICE SIOUX FALLS SD
500 PM CDT MON AUG 03 2015

NOTE: "FAIR" INDICATES FEW OR NO CLOUDS BELOW 12,000 FEET WITH NO
SIGNIFICANT WEATHER AND/OR OBSTRUCTIONS TO VISIBILITY.


SDZ001>005-009-010-012>017-032300-
NORTHWEST AND NORTH CENTRAL SOUTH DAKOTA

CITY           SKY/WX    TMP DP  RH WIND       PRES   REMARKS
BUFFALO          N/A     85  49  28 SE9       29.92F
FAITH            N/A     85  49  28 SE8       29.97F
MOBRIDGE       SUNNY     86  55  34 N7        29.94F
$$

SDZ012>016-024>037-041>051-057-063-072>074-032300-
SOUTHWEST AND SOUTH CENTRAL SOUTH DAKOTA

CITY           SKY/WX    TMP DP  RH WIND       PRES   REMARKS
RAPID CTY ARPT PTSUNNY   83  60  45 SE10      29.97F
PIERRE         SUNNY     85  52  32 VRB3      29.94F
CUSTER         CLOUDY    74  58  57 E10       30.12F
ELLSWORTH AFB  MOSUNNY   85  59  41 S12       29.97F
PHILIP         SUNNY     85  57  38 SE12      29.95F
PINE RIDGE     PTSUNNY   86  61  42 E9        29.95F
WINNER         FAIR      87  56  34 E8        29.96F
$$

SDZ004>011-016>023-039-040-032300-
NORTHEAST SOUTH DAKOTA

CITY           SKY/WX    TMP DP  RH WIND       PRES   REMARKS
ABERDEEN       SUNNY     82  49  31 N6        29.96S
WATERTOWN      SUNNY     78  51  38 NW13      29.97S
BROOKINGS      MOSUNNY   79  55  44 NW12      29.98S
SISSETON         N/A     78  50  37 N13       29.94R
$$

SDZ017-020-022-023-036>040-048>070-032300-
SOUTHEAST SOUTH DAKOTA

CITY           SKY/WX    TMP DP  RH WIND       PRES   REMARKS
SIOUX FALLS    MOSUNNY   82  58  43 N6        29.96F
HURON          SUNNY     82  53  36 NW8       29.95F
CHAMBERLAIN    SUNNY     81  57  43 CALM      29.96F
MITCHELL       SUNNY     84  59  42 VRB6      29.95F
YANKTON        SUNNY     81  61  50 CALM      29.94F
$$

ABBREVIATIONS USED IN REMARKS
   TC - TEMPERATURE IN CELSIUS
  WCI - WIND CHILL INDEX
   HX - HEAT INDEX
  VSB - VISIBILITY



USA.gov is the U.S. government's official web portal to all federal, state and local government web resources and services.